FW4241 Weather Reports


time (UTC)temp
C
wind
direction
speed
KPH
gust
KPH
rain 1hr
cm
rain 24hr
cm
rain mn
cm
humidity
%
barometer
mb
20260505181530 14 283 0.0 4.8 0.00 0.00 0.00 82 1016.8
20260505180028 13 291 0.0 6.4 0.00 0.00 0.00 82 1016.7
20260505174528 13 217 0.0 4.8 0.00 0.00 0.00 83 1016.8
20260505173057 13 247 1.6 6.4 0.00 0.00 0.00 82 1016.7
20260505171555 13 210 0.0 4.8 0.00 0.00 0.00 82 1016.6
20260505170027 13 234 1.6 4.8 0.00 0.00 0.00 82 1016.5
20260505164522 13 213 1.6 4.8 0.00 0.00 0.00 83 1016.4
20260505163019 13 226 0.0 3.2 0.00 0.00 0.00 84 1016.3
20260505161525 13 258 1.6 6.4 0.00 0.00 0.00 83 1016.3
20260505153110 13 124 0.0 6.4 0.00 0.00 0.00 85 1016.2
20260505151510 12 191 0.0 8.0 0.00 0.00 0.00 86 1016.2
20260505140112 12 180 0.0 4.8 0.00 0.00 0.00 88 1015.5
20260505124518 12 160 1.6 6.4 0.00 0.00 0.00 87 1015.2
20260505123015 12 148 1.6 4.8 0.00 0.00 0.00 86 1015.2
20260505121514 12 141 0.0 3.2 0.00 0.00 0.00 86 1015.2
20260505120012 12 167 0.0 1.6 0.00 0.00 0.00 86 1015.1
20260505114511 12 222 0.0 4.8 0.00 0.00 0.00 86 1015.0
20260505113010 12 218 1.6 4.8 0.00 0.00 0.00 86 1015.0
20260505111509 12 156 0.0 0.0 0.00 0.00 0.00 87 1015.1
20260505101508 11 82 0.0 1.6 0.00 0.00 0.00 88 1014.6
20260505100101 11 176 0.0 0.0 0.00 0.00 0.00 88 1014.6
20260505094603 11 176 0.0 0.0 0.00 0.00 0.00 87 1014.6
20260505093102 11 155 0.0 3.2 0.00 0.00 0.00 87 1014.5
20260505091609 12 167 0.0 1.6 0.00 0.00 0.00 86 1014.4
20260505090054 12 131 1.6 4.8 0.00 0.00 0.00 86 1014.2
20260505084551 12 252 0.0 4.8 0.00 0.00 0.00 85 1014.2
20260505083048 12 160 0.0 4.8 0.00 0.00 0.00 84 1014.1
20260505081548 13 169 0.0 3.2 0.00 0.00 0.00 83 1013.9
20260505080052 13 119 1.6 3.2 0.00 0.00 0.00 82 1013.9
20260505074542 13 171 0.0 4.8 0.00 0.00 0.00 82 1013.8
20260505073045 13 205 0.0 1.6 0.00 0.00 0.00 83 1013.5
20260505071541 13 184 0.0 3.2 0.00 0.00 0.00 83 1013.3
20260505070050 13 154 0.0 1.6 0.00 0.00 0.00 82 1013.3
20260505064511 14 135 0.0 8.0 0.00 0.00 0.00 81 1012.9
20260505063011 15 276 0.0 8.0 0.00 0.00 0.00 80 1012.8
20260505061507 15 167 0.0 3.2 0.00 0.00 0.00 79 1012.6
20260505060006 16 188 1.6 6.4 0.00 0.00 0.00 78 1012.4
20260505054506 16 178 0.0 9.7 0.00 0.00 0.00 77 1012.4
20260505053005 17 117 0.0 4.8 0.00 0.00 0.00 77 1012.3
20260505051503 17 143 0.0 1.6 0.00 0.00 0.00 77 1012.2
20260505041605 18 271 0.0 6.4 0.00 0.00 0.00 77 1011.5
20260505040059 18 182 0.0 0.0 0.00 0.00 0.00 77 1011.1
20260505034558 19 159 0.0 1.6 0.00 0.00 0.00 75 1010.9
20260505033058 20 219 0.0 0.0 0.00 0.00 0.00 74 1010.6
20260505031605 20 214 0.0 3.2 0.00 0.00 0.00 72 1010.5
20260505030055 20 220 0.0 4.8 0.00 0.00 0.00 71 1010.4
20260505024603 21 160 0.0 11.3 0.00 0.00 0.00 70 1010.3
20260505023054 21 231 1.6 9.7 0.00 0.00 0.00 68 1010.3
20260505021554 21 146 4.8 9.7 0.00 0.00 0.00 67 1010.2
20260505020050 22 122 3.2 11.3 0.00 0.00 0.00 66 1010.3
20260505014604 22 153 3.2 8.0 0.00 0.00 0.00 64 1010.2
20260505013050 23 157 3.2 11.3 0.00 0.00 0.00 63 1010.4
20260505011556 23 171 3.2 11.3 0.00 0.00 0.00 62 1010.5
20260505010043 23 197 8.0 14.5 0.00 0.00 0.00 60 1010.5
20260505004543 23 167 1.6 11.3 0.00 0.00 0.00 62 1010.6
20260505003142 23 190 1.6 11.3 0.00 0.00 0.00 61 1010.7
20260505001538 23 279 3.2 11.3 0.00 0.00 0.00 61 1010.7
20260505000048 23 117 6.4 0.0 0.00 0.00 0.00 61 1010.8
20260504234545 23 199 3.2 14.5 0.00 0.00 0.00 60 1010.7
20260504233135 23 186 6.4 14.5 0.00 0.00 0.00 60 1010.8
20260504231533 23 194 3.2 12.9 0.00 0.00 0.00 60 1010.9
20260504230030 22 208 4.8 14.5 0.00 0.00 0.00 60 1011.1
20260504224531 22 240 4.8 14.5 0.00 0.00 0.00 60 1011.3
20260504223035 22 222 6.4 14.5 0.00 0.00 0.00 61 1011.3
20260504221526 21 219 9.7 14.5 0.00 0.00 0.00 62 1011.7
20260504220021 22 234 1.6 11.3 0.00 0.00 0.00 62 1011.9
20260504214525 21 266 1.6 12.9 0.00 0.00 0.00 63 1012.0
20260504213032 21 140 3.2 12.9 0.00 0.00 0.00 63 1012.2
20260504211521 21 209 3.2 12.9 0.00 0.00 0.00 64 1012.3
20260504210015 21 168 3.2 11.3 0.00 0.00 0.00 63 1012.5
20260504204531 20 155 4.8 11.3 0.00 0.00 0.00 65 1012.7
20260504203012 19 147 4.8 12.9 0.00 0.00 0.00 69 1012.8
20260504201538 18 203 4.8 12.9 0.00 0.00 0.00 69 1012.9
20260504200036 18 203 4.8 14.5 0.00 0.00 0.00 70 1013.2
20260504194531 18 172 6.4 12.9 0.00 0.00 0.00 71 1013.2
20260504193028 17 103 1.6 9.7 0.00 0.00 0.00 73 1013.4
20260504191526 16 247 3.2 9.7 0.00 0.00 0.00 75 1013.4
20260504190025 16 198 3.2 16.1 0.00 0.00 0.00 77 1013.4
20260504184523 16 248 4.8 14.5 0.00 0.00 0.00 76 1013.7
20260504183021 16 268 6.4 17.7 0.00 0.00 0.00 77 1013.6